Home > Time Zones > World Clock > Weather > Iran > Yazd > Past weeks

Flag for Iran Weather past 2 weeks in Yazd, Iran

Now
93 °F

Sunny.


Feels Like: 89 °F
Forecast: 70 / 99 °F
Wind: 5 mph from Northeast

Location: Yazd Airport

Current Time: May 29, 2015 at 1:04:06 PM

Latest Report: May 29, 2015 at 12:30 PM


Visibility: 10 mi

Pressure: 30.01 "Hg

Humidity: 8%

Dew point: 25 °F

Location of YazdLocation

Historic Weather in Yazd — Graph

°F

Yazd temperature yesterday

Maximum temperature yesterday: 93 °F (at 3:30 PM)
Minimum temperature yesterday: 68 °F (at 5:30 AM)
Average temperature yesterday: 82 °F

Past Weeks' High & Low Weather Summary

 TemperatureHumidityPressure
High99 °F (May 20, 3:30 PM)35% (May 28, 6:00 AM)30.15 "Hg (May 28, 6:00 AM)
Low66 °F (May 17, 6:30 AM)2% (May 20, 4:30 PM)29.86 "Hg (May 20, 6:00 PM)
Average85 °F13%29.99 "Hg
* Reported May 14 11:30 AM — May 29 12:00 Noon, Yazd, Weather by CustomWeather, © 2015

Note: Actual official high and low records may vary slightly from our data, if they occured in-between our weather recording intervals... More about our weather records

Advertising

Yazd weather history for previous 24 hours

 ConditionsComfort  
Time TempWeatherWind HumidityBarometerVisibility
12:00 PM
Fri, May 29
91 °FSunny.7 mph9%30.04 "Hg10 mi
11:30 AM90 °FSunny.7 mph9%30.04 "Hg10 mi
11:00 AM90 °FSunny.5 mph9%30.04 "Hg10 mi
10:30 AM88 °FSunny.5 mph9%30.04 "Hg10 mi
10:00 AM88 °FSunny.2 mph10%30.04 "Hg10 mi
9:30 AM86 °FSunny.2 mph11%30.04 "Hg10 mi
9:00 AM84 °FSunny.No wind12%30.04 "Hg10 mi
8:30 AM81 °FSunny.2 mph13%30.01 "Hg10 mi
8:00 AM79 °FSunny.2 mph13%30.01 "Hg10 mi
7:30 AM75 °FSunny.No wind16%30.01 "Hg10 mi
7:00 AM73 °FClear.2 mph17%29.98 "Hg10 mi
6:30 AM70 °FClear.2 mph18%29.98 "Hg10 mi
6:00 AM70 °FClear.2 mph18%29.98 "Hg10 mi
5:30 AM73 °FClear.No wind16%29.95 "Hg10 mi
4:30 AM73 °FClear.2 mph16%29.95 "Hg10 mi
1:30 AM77 °FClear.2 mph17%29.92 "Hg10 mi
12:30 AM81 °FClear.2 mph13%29.92 "Hg10 mi
11:30 PM
Thu, May 28
81 °FClear.7 mph12%29.92 "Hg10 mi
11:00 PM82 °FClear.7 mph11%29.92 "Hg10 mi
10:30 PM84 °FClear.7 mph10%29.92 "Hg10 mi
10:00 PM84 °FClear.5 mph10%29.92 "Hg10 mi
9:30 PM84 °FClear.2 mph10%29.92 "Hg10 mi
9:00 PM86 °FSunny.No wind10%29.89 "Hg10 mi
8:30 PM88 °FSunny.5 mph9%29.89 "Hg10 mi
8:00 PM90 °FSunny.7 mph8%29.89 "Hg10 mi
7:30 PM91 °FSunny.9 mph7%29.86 "Hg10 mi
7:00 PM91 °FClear.7 mph8%29.86 "Hg5 mi
6:30 PM93 °FPassing clouds.9 mph7%29.86 "Hg5 mi
6:00 PM93 °FPassing clouds.9 mph7%29.89 "Hg5 mi
5:30 PM93 °FPassing clouds.9 mph7%29.89 "Hg4 mi
4:30 PM93 °FPassing clouds.9 mph8%29.89 "Hg4 mi
3:30 PM93 °FPassing clouds.9 mph8%29.89 "Hg5 mi
2:30 PM91 °FPassing clouds.7 mph8%29.92 "Hg5 mi
1:30 PM90 °FPassing clouds.12 mph9%29.95 "Hg5 mi
Weather by CustomWeather, © 2015

See weather overviewHow to use our weather pages